2010 UC8

Initial reported observation by Mt. Lemmon Survey on 2010-10-30.
(Discoverer will be defined when the object is numbered. See this note on how discoverers are determined.)

Orbit

Orbit type: Mars-crosser
One opposition object seen prior.

Note: WebGL enabled browser required.

epoch2019-04-27.0
epoch JD2458600.5
perihelion date2021-05-31.80347
perihelion JD2459366.30347
argument of perihelion (°)343.74672
ascending node (°)40.63918
inclination (°)13.54490
eccentricity0.5420725
perihelion distance (AU)1.3969859
Tisserand w.r.t. Jupiter3.0
ΔV w.r.t. Earth (km/sec)8.6
semimajor axis (AU)3.0506705
mean anomaly (°)218.34621
mean daily motion (°/day)0.18497410
aphelion distance (AU)4.704
period (years)5.33
P-vector [x]0.90571535
P-vector [y]0.41030447
P-vector [z]0.10644228
Q-vector [x]-0.39548957
Q-vector [y]0.72760028
Q-vector [z]0.56052282
absolute magnitude21.5
phase slope0.15
uncertainty8
referenceMPO 186441
observations used23
oppositions1
arc length (days)2
first opposition used2010
last opposition used2010
residual rms (arc-secs)0.34
perturbers coarse indicatorM-v
perturbers precise indicator0038h
first observation date used2010-10-30.0
last observation date used2010-11-01.0
computer nameMPCK
Minimum Orbit Intersection Distances (in AU)
for orbit epoch: 2458600.5, reference: MPO186441
Mercury1.06118
Venus0.67254
Earth0.40705
Mars0.03535
Jupiter0.76935
Saturn5.01503
Uranus13.6452
Neptune25.6908

Observations

23 total observations over interval: 2010 10 30.27010 – 2010 11 01.31034
These data are available for download (format description).

Date (UT) J2000 RA J2000 Dec Magn Location Ref
2010 10 30.27010 02 07 53.36 +08 16 12.1 19.9 V G96 – Mt. Lemmon Survey MPS 353946
2010 10 30.27648 02 07 53.07 +08 16 26.1 20.2 V G96 – Mt. Lemmon Survey MPS 353946
2010 10 30.28252 02 07 52.78 +08 16 39.2 20.7 V G96 – Mt. Lemmon Survey MPS 353946
2010 10 30.28857 02 07 52.50 +08 16 52.3 20.2 V G96 – Mt. Lemmon Survey MPS 353946
2010 10 30.93729 02 07 28.15 +08 40 37.0 20.4 R J04 – ESA Optical Ground Station, Tenerife MPS 353946
2010 10 30.94136 02 07 27.92 +08 40 46.0 20.4 R J04 – ESA Optical Ground Station, Tenerife MPS 353946
2010 10 30.94542 02 07 27.73 +08 40 54.9 20.6 R J04 – ESA Optical Ground Station, Tenerife MPS 353946
2010 10 31.22688 02 07 16.75 +08 51 09.2 20.7 V G96 – Mt. Lemmon Survey MPS 353946
2010 10 31.23427 02 07 16.39 +08 51 25.5 20.5 V G96 – Mt. Lemmon Survey MPS 353946
2010 10 31.24176 02 07 16.10 +08 51 41.7 20.8 V G96 – Mt. Lemmon Survey MPS 353946
2010 10 31.24928 02 07 15.74 +08 51 58.0 20.8 V G96 – Mt. Lemmon Survey MPS 353946
2010 10 31.253701 02 07 15.00 +08 52 05.6 20.8 V H21 – Astronomical Research Observatory, Westfield MPS 353946
2010 10 31.265679 02 07 14.46 +08 52 32.0 21.0 V H21 – Astronomical Research Observatory, Westfield MPS 353946
2010 10 31.277643 02 07 13.89 +08 52 58.0 21.1 V H21 – Astronomical Research Observatory, Westfield MPS 353946
2010 10 31.39518 02 07 09.00 +08 57 17.2   291 – LPL/Spacewatch II MPS 353946
2010 10 31.40268 02 07 08.77 +08 57 32.3   291 – LPL/Spacewatch II MPS 353946
2010 11 01.26509 02 06 36.92 +09 28 54.0 20.8 V 291 – LPL/Spacewatch II MPS 353946
2010 11 01.26894 02 06 36.76 +09 29 02.1 20.9 V 291 – LPL/Spacewatch II MPS 353946
2010 11 01.27280 02 06 36.57 +09 29 10.6 20.9 V 291 – LPL/Spacewatch II MPS 353946
2010 11 01.28895 02 06 35.75 +09 29 45.0 20.2 R H01 – Magdalena Ridge Observatory, Socorro MPS 353946
2010 11 01.29461 02 06 35.50 +09 29 57.4 20.3 R H01 – Magdalena Ridge Observatory, Socorro MPS 353946
2010 11 01.30414 02 06 35.06 +09 30 17.9 20.1 R H01 – Magdalena Ridge Observatory, Socorro MPS 353946
2010 11 01.31034 02 06 34.78 +09 30 31.4 19.9 R H01 – Magdalena Ridge Observatory, Socorro MPS 353946